Content
SEND FEEDBACK

Daily
Averages
Monthly
Summary
United States of America

ORANGE LAKE, NEW YORK


Home > North America > United States > New York
Elevation: 581 feet     Latitude: 41 47N     Longitude: 074 58W

WEATHER
 
SELECT A DAY
Number of Records: 153,021;   Date Range: 11/1/95 - 12/20/14
 
SHARE

PRINT THIS DATA

[ ← Previous Day ]
WEATHER ALMANAC - AUGUST 21, 2013
[ Next Day → ]
[ °C ]   °F
Weather ElementAverageHighLow
Temperature80 °F89.1 °F (12:51 pm)72 °F (5:51 am)
Dewpoint61.5 °F66 °F (9:51 pm)55.9 °F (3:51 pm)
Humidity55 %73 % (5:51 am)35 % (12:51 pm)
Barometer30.12 in30.18 in (7:51 am)30.06 in (11:51 pm)
Wind Speed2.4 mph5.8 mph (1:51 pm)
Weather ElementAverage
Visibility9.6 mi
Wind DirectionENE (84.3 °)

Weather ElementTotal
Precipitation---
Cooling Degree Days15.6 (Base 65)
Growing Degree Days30.6 (Base 50)
Averaged from 23 records on August 21, 2013
WEATHER CONDITIONS BREAKOUT
WIND DIRECTION BREAKOUT
WEATHER BY HOUR - AUGUST 21, 2013
[ °C ]   °F
Local TimeTemperatureDewpointHumidityBarometerVisibilityWind DirectionWind SpeedGust SpeedPrecipitationEventsConditions
1:51 AM75.9 °F64.0 °F67 %30.13 in10.0 miWNW (290°)3.5 mphClear
2:51 AM75.0 °F64.0 °F69 %30.13 in10.0 miCalmClear
3:51 AM75.0 °F62.1 °F64 %30.14 in10.0 miWNW (300°)4.6 mphClear
4:51 AM73.0 °F62.1 °F68 %30.14 in10.0 miWNW (300°)3.5 mphClear
5:51 AM72.0 °F63.0 °F73 %30.15 in10.0 miWNW (290°)3.5 mphClear
6:51 AM73.0 °F62.1 °F68 %30.17 in9.0 miCalmClear
7:51 AM73.9 °F62.1 °F66 %30.18 in8.0 miWest (280°)3.5 mphClear
8:51 AM75.9 °F61.0 °F60 %30.18 in9.0 miCalmClear
9:51 AM79.0 °F61.0 °F54 %30.18 in10.0 miWNW (290°)3.5 mphClear
10:51 AM82.9 °F59.0 °F44 %30.18 in10.0 miCalmClear
11:51 AM86.0 °F57.9 °F38 %30.17 in10.0 miCalmClear
12:51 PM89.1 °F57.9 °F35 %30.15 in10.0 miVariable4.6 mphClear
1:51 PM88.0 °F57.9 °F36 %30.14 in10.0 miVariable5.8 mphClear
2:51 PM89.1 °F57.9 °F35 %30.11 in10.0 miNorthClear
3:51 PM87.1 °F55.9 °F35 %30.10 in10.0 miVariable3.5 mphClear
4:51 PM87.1 °F57.0 °F36 %30.09 in10.0 miVariable5.8 mphClear
5:51 PM84.0 °F62.1 °F47 %30.08 in10.0 miVariable3.5 mphClear
6:51 PM82.0 °F63.0 °F52 %30.07 in10.0 miCalmClear
7:51 PM80.1 °F64.0 °F58 %30.07 in9.0 miCalmClear
8:51 PM78.1 °F64.9 °F64 %30.08 in9.0 miSouth (190°)3.5 mphClear
9:51 PM78.1 °F66.0 °F66 %30.08 in8.0 miCalmClear
10:51 PM78.1 °F66.0 °F66 %30.07 in8.0 miCalmClear
11:51 PM77.0 °F64.0 °F64 %30.06 in10.0 miVariable4.6 mphClear
Hourly data recorded from KNYC, located miles away from Orange Lake, New York







STORIES FROM OUR PARTNERS